Flag for China Weather past 2 weeks in Lanzhou, Gansu, China

Now
55 °F

Fog.


Feels Like: 55 °F
Forecast: 51 / 86 °F
Wind: 3 mph from West

Location: Lanzhou / Zhongchuan

Current Time: Jul 24, 2014 at 10:06:38 AM

Latest Report: Jul 24, 2014 at 9:00 AM


Visibility: 2 mi

Pressure: 30.09 "Hg

Humidity: 100%

Dew point: 55 °F

Location of LanzhouLocation

Historic Weather in Lanzhou — Graph

°F

Lanzhou temperature yesterday

Maximum temperature yesterday: 66 °F (at 6:00 PM)
Minimum temperature yesterday: 54 °F (at 12:00 AM)
Average temperature yesterday: 58 °F

Past Weeks' High & Low Weather Summary

 TemperatureHumidityPressure
High86 °F (Jul 17, 5:00 PM)100% (Jul 12, 6:00 AM)30.21 "Hg (Jul 12, 6:00 AM)
Low50 °F (Jul 13, 6:00 AM)24% (Jul 17, 5:00 PM)29.80 "Hg (Jul 17, 5:00 PM)
Average65 °F68%30.01 "Hg
* Reported Jul 9 8:00 AM — Jul 24 8:00 AM, Lanzhou, Weather by CustomWeather, © 2014

Note: Actual official high and low records may vary slightly from our data, if they occured in-between our weather recording intervals... More about our weather records

Advertising

Lanzhou weather history for previous 24 hours

 ConditionsComfort  
Time TempWeatherWind HumidityBarometerVisibility
8:00 AM
Jul 24
55 °FDrizzle. Fog.3 mph100%30.09 "Hg1 mi
7:00 AM55 °FFog.3 mph94%30.07 "Hg0 mi
6:00 AM55 °FFog.1 mph100%30.07 "Hg1 mi
5:00 AM54 °FFog.No wind100%30.07 "Hg1 mi
4:00 AM52 °FFog.1 mph100%30.07 "Hg0 mi
3:00 AM52 °FFog.3 mph100%30.09 "Hg0 mi
2:00 AM52 °FFog.3 mph100%30.12 "Hg2 mi
1:00 AM52 °FFog.3 mph100%30.12 "Hg2 mi
12:00 AM54 °FFog.1 mph100%30.12 "Hg2 mi
11:00 PM
Jul 23
55 °FClear.3 mph94%30.15 "Hg4 mi
10:00 PM57 °FClear.No wind94%30.15 "Hg4 mi
9:00 PM59 °FSunny.1 mph88%30.12 "Hg10 mi
6:00 PM66 °FBroken clouds.6 mph73%30.12 "HgN/A
5:00 PM64 °FScattered clouds.6 mph73%30.15 "HgN/A
4:00 PM63 °FSprinkles. Scattered clouds.3 mph83%30.15 "HgN/A
2:00 PM63 °FLight rain. Broken clouds.1 mph77%30.18 "HgN/A
1:00 PM61 °FLight rain. Broken clouds.3 mph88%30.18 "HgN/A
12:00 PM59 °FLight rain. More clouds than sun.3 mph88%30.21 "HgN/A
11:00 AM57 °FLight rain. More clouds than sun.1 mph88%30.21 "HgN/A
10:00 AM55 °FLight rain. More clouds than sun.No wind88%30.21 "HgN/A
Weather by CustomWeather, © 2014

See weather overviewHow to use our weather pages